Precipitable_Water
0.65 0.67 0.66 0.66 0.65 0.68 0.71 0.73 0.76 0.81 0.81 0.81 0.82 0.81 0.80 0.80 0.77 0.76 0.74 0.72 0.72 0.70 0.68 0.68 0.68 0.69 0.71
0.59 0.60 0.60 0.64 0.64 0.64 0.66 0.73 0.73 0.78 0.79 0.82 0.82 0.81 0.79 0.77 0.74 0.72 0.71 0.70 0.69 0.67 0.64 0.62 0.62 0.64 0.66
0.54 0.60 0.61 0.62 0.61 0.65 0.65 0.66 0.71 0.77 0.77 0.80 0.80 0.78 0.76 0.74 0.72 0.70 0.68 0.67 0.65 0.63 0.62 0.60 0.58 0.57 0.57
0.55 0.55 0.56 0.59 0.60 0.57 0.58 0.64 0.65 0.72 0.77 0.81 0.79 0.76 0.74 0.71 0.68 0.66 0.65 0.64 0.62 0.58 0.55 0.54 0.53 0.53 0.53
0.52 0.52 0.51 0.50 0.51 0.59 0.57 0.60 0.63 0.66 0.68 0.69 0.70 0.69 0.68 0.67 0.65 0.63 0.61 0.60 0.57 0.54 0.50 0.48 0.46 0.44 0.44
0.47 0.46 0.49 0.52 0.56 0.57 0.57 0.55 0.51 0.65 0.62 0.61 0.66 0.62 0.63 0.64 0.63 0.61 0.60 0.55 0.51 0.47 0.45 0.44 0.42 0.41 0.41
0.51 0.51 0.51 0.55 0.57 0.55 0.56 0.56 0.54 0.60 0.60 0.54 0.61 0.58 0.62 0.62 0.61 0.59 0.56 0.51 0.45 0.43 0.42 0.40 0.39 0.38 0.38
0.56 0.55 0.57 0.59 0.60 0.60 0.59 0.58 0.58 0.59 0.61 0.49 0.56 0.55 0.59 0.60 0.59 0.57 0.51 0.45 0.43 0.41 0.39 0.37 0.38 0.37 0.37
0.55 0.57 0.59 0.61 0.63 0.60 0.54 0.52 0.49 0.52 0.58 0.54 0.53 0.52 0.54 0.55 0.56 0.53 0.48 0.44 0.40 0.38 0.37 0.35 0.33 0.35 0.35
0.49 0.53 0.57 0.60 0.62 0.61 0.58 0.51 0.50 0.48 0.55 0.51 0.51 0.51 0.45 0.52 0.51 0.48 0.44 0.40 0.38 0.37 0.36 0.34 0.31 0.30 0.30
0.46 0.50 0.53 0.55 0.56 0.58 0.59 0.56 0.51 0.49 0.56 0.55 0.50 0.49 0.46 0.40 0.43 0.43 0.41 0.36 0.34 0.32 0.34 0.34 0.31 0.27 0.24
0.44 0.46 0.48 0.49 0.52 0.54 0.56 0.56 0.57 0.54 0.57 0.55 0.50 0.46 0.40 0.36 0.34 0.37 0.35 0.34 0.31 0.29 0.30 0.30 0.31 0.29 0.25
0.43 0.45 0.46 0.48 0.50 0.51 0.52 0.52 0.50 0.47 0.49 0.48 0.41 0.43 0.39 0.34 0.30 0.30 0.30 0.30 0.30 0.28 0.28 0.26 0.25 0.24 0.21
0.43 0.45 0.46 0.46 0.46 0.47 0.44 0.42 0.40 0.41 0.44 0.42 0.39 0.39 0.34 0.31 0.29 0.28 0.28 0.25 0.27 0.26 0.26 0.26 0.26 0.24 0.21
0.43 0.43 0.43 0.42 0.40 0.39 0.39 0.38 0.35 0.34 0.34 0.36 0.37 0.35 0.32 0.30 0.26 0.27 0.26 0.25 0.25 0.24 0.23 0.23 0.24 0.24 0.22
0.42 0.42 0.41 0.40 0.40 0.41 0.39 0.35 0.32 0.32 0.32 0.33 0.32 0.30 0.29 0.29 0.29 0.25 0.25 0.23 0.23 0.23 0.23 0.20 0.20 0.22 0.21
0.42 0.41 0.41 0.41 0.41 0.40 0.37 0.33 0.31 0.31 0.32 0.32 0.30 0.26 0.22 0.20 0.25 0.29 0.23 0.21 0.19 0.19 0.19 0.17 0.17 0.18 0.19
Wind_Speed
35 35 34 33 32 31 29 28 27 25 24 24 22 22 20 17 17 17 17 18 18 17 17 16 15 15 15
35 33 32 32 31 29 29 27 26 25 23 22 20 18 17 16 15 16 16 17 17 17 16 15 14 14 14
32 31 31 30 30 30 28 27 25 24 23 22 20 17 16 14 13 14 14 13 14 14 14 14 14 13 13
32 31 31 31 30 28 25 23 21 22 20 17 17 16 15 13 12 11 11 11 11 11 12 12 13 13 13
33 32 31 29 26 24 22 20 20 18 17 17 17 15 13 12 11 11 10 10 9 9 10 10 11 11 12
30 30 28 27 24 23 21 20 18 16 17 17 18 16 14 12 11 10 9 9 8 8 8 10 10 11 11
28 27 26 24 23 22 22 20 19 18 19 17 15 15 14 12 10 9 9 8 8 8 8 8 9 9 10
26 25 25 23 23 23 23 20 19 18 19 16 16 14 13 12 11 9 8 8 8 8 8 9 9 9 9
23 24 24 24 22 21 21 21 20 20 19 17 16 14 13 11 10 9 9 9 8 8 8 9 9 9 8
20 19 18 17 18 19 20 21 20 18 20 17 17 15 13 12 10 10 9 9 9 9 8 8 8 8 8
16 15 13 13 15 16 18 20 19 17 19 18 17 16 12 11 11 11 10 10 9 9 8 8 7 8 7
13 12 12 12 13 14 16 17 17 16 17 17 16 15 13 11 10 11 10 10 10 9 9 8 7 7 7
11 11 11 11 13 15 15 15 15 14 15 15 14 14 12 11 10 11 10 10 10 9 8 8 8 7 7
10 9 10 11 13 14 15 15 15 14 13 13 12 12 11 10 10 10 11 10 10 9 9 9 8 8 7
9 9 10 12 13 15 15 14 15 14 13 11 10 9 9 10 10 10 10 10 10 9 9 9 9 8 8
9 10 11 12 14 14 14 14 14 14 12 11 10 9 8 8 9 10 10 9 9 9 9 9 9 9 8
11 11 12 13 14 14 14 14 14 13 11 11 10 9 9 9 9 9 9 9 9 8 8 9 9 9 8
Wind_Direction
285 284 284 283 284 284 284 281 277 272 271 271 267 261 258 255 260 264 268 267 269 270 270 268 265 258 255
283 282 282 282 282 282 281 279 273 268 270 267 256 246 249 254 260 265 270 272 268 264 264 262 260 259 252
280 279 280 280 280 281 278 275 269 264 267 261 241 241 242 253 259 268 273 274 267 263 259 256 256 254 253
278 278 278 279 278 277 273 269 264 263 257 241 226 233 241 250 261 266 272 275 269 262 257 253 254 253 251
276 276 277 277 274 269 266 258 261 255 234 223 228 229 240 251 257 262 270 273 268 261 256 253 255 256 256
274 274 274 273 269 262 254 254 249 237 223 225 230 232 243 248 252 260 267 267 264 261 260 255 257 257 255
273 273 272 270 266 256 246 244 240 231 223 221 224 234 236 240 251 255 262 260 262 263 263 263 260 257 257
274 274 270 267 260 251 244 234 228 221 214 226 226 231 235 241 244 251 254 258 263 267 268 267 263 259 259
277 273 268 263 253 243 230 224 221 221 223 225 227 228 233 236 238 246 252 260 264 267 270 270 264 257 257
279 274 266 256 241 231 224 220 217 223 223 223 220 225 229 234 238 244 255 259 263 267 270 268 261 255 251
275 268 254 246 232 223 217 213 217 222 218 217 217 218 227 234 239 247 254 258 263 265 264 263 259 250 246
267 254 248 235 221 215 209 209 213 215 208 210 213 216 224 236 243 246 254 259 259 259 257 255 251 246 243
253 248 236 223 214 207 201 197 198 199 199 204 212 215 225 235 243 247 252 256 256 253 249 247 245 243 243
238 235 220 209 200 195 193 194 195 192 195 202 209 217 228 237 246 248 253 254 249 248 245 242 241 241 244
229 221 209 202 197 194 193 194 192 193 196 202 208 215 228 239 250 251 251 249 245 243 241 240 241 242 247
221 211 199 193 191 192 192 191 191 194 197 203 210 221 237 254 254 250 248 241 239 240 239 239 240 242 251
213 203 199 196 193 193 192 191 193 197 203 211 221 234 247 256 258 249 240 233 232 235 237 235 236 244 250